Tracking 19246 objects as of 20-Aug-2018
HD Live streaming from Space Station
objects crossing your sky now

GLOBALSTAR M052

Track GLOBALSTAR M052 now!
10-day predictions
GLOBALSTAR M052 is classified as:


NORAD ID: 25773
Int'l Code: 1999-031D
Perigee: 2,090.2 km
Apogee: 2,094.6 km
Inclination: 52.0 °
Period: 129.1 minutes
Semi major axis: 8463 km
RCS: 2.3894 m2 (large)
Launch date: June 10, 1999
Source: Globalstar (GLOB)
Launch site: AIR FORCE EASTERN TEST RANGE (AFETR)
aabbcc
Your satellite tracking list
Your tracking list is empty




NASA's NSSDC Master Catalog

Two Line Element Set (TLE):
1 25773U 99031D   18231.38981128 -.00000017 +00000-0 +16405-2 0  9998
2 25773 051.9828 229.3195 0002624 352.1418 155.2880 11.15025808200325
Source of the keplerian elements: AFSPC